Location: Bakhuizen
(52.8696°N, 5.4575°E)
Time: 09:02:03
(UTC+00:00)

Cosmos 773 Rocket - Pass Details

Date: 11 May 2021
Orbit: 745 x 777 km, 74.1° (Epoch: 15 June)

Event Time Altitude Azimuth Distance (km) Brightness Sun altitude
Rises 20:09:00 0° 333° (NNW) 3,271 8.8 -6.3°
Reaches altitude 10° 20:11:23 10° 333° (NNW) 2,340 7.9 -6.6°
Maximum altitude 20:16:43 84° 248° (WSW) 789 4.1 -7.2°
Drops below altitude 10° 20:22:00 10° 159° (SSE) 2,317 5.9 -7.8°
Enters shadow 20:22:41 - 159° (SSE) 2,579 6.2 -7.8°
